Temp
-12 -12 -12 -12 -12 -13 -13 -14 -14 -14 -14 -13 -13 -13 -13 -13 -13 -13 -13 -13 -13 -13 -13 -13 -13 -13 -13 -13 -13 -14 -14 -15 -15 -15 -15 -14 -15 -15 -15 -15 -15 -15 -15
-12 -12 -12 -13 -13 -13 -14 -14 -14 -14 -14 -14 -14 -13 -13 -13 -13 -14 -13 -13 -13 -13 -13 -13 -13 -13 -13 -14 -14 -14 -15 -15 -15 -15 -15 -15 -15 -15 -16 -16 -16 -16 -16
-13 -13 -13 -13 -13 -14 -14 -14 -14 -15 -15 -15 -14 -14 -13 -13 -13 -14 -14 -13 -13 -13 -13 -13 -13 -14 -14 -14 -15 -15 -15 -15 -15 -16 -16 -16 -16 -16 -16 -16 -16 -16 -17
-13 -13 -13 -13 -13 -14 -14 -14 -14 -14 -15 -15 -14 -14 -14 -14 -14 -14 -14 -14 -14 -14 -14 -14 -14 -14 -14 -15 -15 -15 -15 -15 -16 -16 -16 -16 -16 -17 -17 -17 -17 -17 -17
-12 -12 -12 -12 -13 -13 -13 -14 -14 -14 -15 -15 -14 -14 -14 -14 -14 -14 -14 -14 -14 -14 -14 -14 -15 -15 -15 -15 -15 -15 -15 -16 -16 -16 -16 -16 -17 -17 -17 -17 -18 -18 -18
-13 -13 -13 -13 -13 -13 -13 -13 -14 -14 -14 -14 -14 -14 -14 -15 -15 -15 -15 -15 -15 -15 -15 -15 -15 -15 -15 -15 -15 -16 -16 -16 -17 -17 -16 -17 -17 -18 -18 -18 -19 -19 -19
-13 -13 -13 -13 -13 -13 -13 -13 -13 -14 -14 -14 -14 -14 -14 -15 -15 -15 -15 -15 -15 -15 -15 -15 -15 -15 -15 -16 -16 -16 -17 -17 -17 -17 -17 -17 -18 -18 -18 -19 -19 -19 -19
-13 -13 -14 -14 -14 -14 -14 -14 -14 -14 -14 -14 -14 -14 -14 -15 -15 -15 -15 -15 -16 -15 -15 -16 -16 -16 -16 -16 -17 -17 -17 -17 -17 -18 -18 -18 -18 -18 -19 -19 -19 -20 -20
-13 -13 -14 -14 -14 -14 -14 -14 -14 -15 -14 -15 -15 -15 -15 -15 -15 -15 -15 -15 -16 -16 -16 -16 -16 -16 -16 -17 -17 -17 -17 -17 -18 -18 -19 -19 -19 -19 -19 -20 -20 -20 -20
-13 -13 -14 -14 -14 -15 -15 -15 -15 -15 -15 -15 -15 -15 -15 -15 -15 -15 -15 -15 -16 -15 -15 -16 -16 -16 -17 -17 -17 -18 -18 -18 -18 -19 -19 -19 -19 -20 -20 -20 -20 -20 -21
-15 -15 -15 -15 -15 -15 -16 -16 -16 -16 -15 -16 -15 -15 -15 -15 -15 -16 -16 -16 -15 -15 -16 -16 -16 -16 -17 -17 -18 -18 -18 -19 -19 -19 -19 -19 -20 -20 -20 -20 -20 -21 -21
-15 -15 -15 -16 -16 -16 -16 -16 -16 -16 -16 -16 -15 -16 -16 -16 -16 -16 -16 -16 -16 -16 -16 -16 -16 -17 -17 -17 -18 -19 -19 -19 -20 -20 -20 -20 -21 -21 -21 -21 -21 -21 -22
-17 -16 -16 -16 -16 -16 -16 -16 -16 -16 -16 -16 -16 -16 -16 -16 -16 -16 -16 -16 -16 -16 -16 -16 -17 -17 -17 -18 -19 -19 -19 -20 -20 -20 -21 -21 -21 -21 -21 -21 -21 -22 -22
-18 -18 -18 -17 -17 -16 -17 -17 -16 -16 -16 -16 -17 -16 -17 -17 -17 -17 -16 -16 -16 -16 -17 -17 -17 -17 -18 -19 -19 -20 -20 -20 -20 -20 -21 -21 -21 -22 -22 -22 -22 -23 -23
-18 -18 -18 -18 -18 -18 -17 -17 -17 -17 -17 -16 -16 -16 -17 -17 -17 -17 -17 -16 -17 -17 -17 -17 -17 -18 -18 -19 -20 -20 -20 -20 -21 -22 -22 -22 -22 -22 -22 -23 -23 -24 -24
-19 -19 -19 -19 -19 -19 -19 -19 -19 -18 -17 -17 -17 -18 -18 -18 -18 -17 -17 -17 -17 -17 -17 -17 -18 -18 -19 -20 -20 -20 -21 -22 -22 -22 -22 -22 -22 -22 -22 -23 -24 -24 -24
-20 -20 -20 -20 -19 -20 -20 -19 -19 -19 -19 -18 -18 -18 -18 -18 -18 -18 -18 -18 -18 -17 -17 -18 -19 -19 -20 -20 -20 -21 -22 -22 -22 -23 -22 -23 -22 -22 -23 -24 -25 -25 -25
-21 -21 -20 -20 -20 -20 -20 -20 -19 -19 -19 -19 -18 -18 -18 -19 -18 -18 -17 -17 -17 -18 -18 -18 -20 -20 -20 -21 -22 -22 -22 -23 -23 -23 -23 -23 -23 -24 -25 -25 -25 -26 -26
-21 -21 -21 -21 -21 -20 -20 -20 -19 -19 -19 -19 -19 -19 -19 -19 -19 -18 -18 -18 -18 -19 -19 -20 -21 -21 -21 -22 -23 -23 -23 -23 -23 -23 -23 -23 -25 -25 -25 -25 -26 -26 -27
-22 -22 -22 -22 -21 -21 -21 -21 -21 -20 -20 -20 -20 -20 -20 -19 -20 -19 -19 -19 -19 -19 -20 -21 -21 -22 -22 -23 -23 -24 -24 -24 -23 -23 -24 -25 -25 -26 -26 -26 -27 -27 -28
-24 -24 -24 -24 -23 -23 -22 -23 -22 -21 -22 -22 -22 -21 -20 -21 -20 -20 -19 -19 -19 -20 -21 -22 -22 -23 -23 -24 -24 -24 -24 -24 -24 -24 -25 -25 -26 -26 -26 -27 -28 -28 -28
-26 -25 -25 -25 -24 -24 -24 -24 -23 -23 -22 -22 -22 -21 -21 -20 -20 -20 -20 -20 -21 -22 -23 -23 -23 -23 -24 -24 -24 -24 -24 -24 -24 -25 -26 -26 -26 -27 -27 -27 -28 -28 -29
-26 -26 -25 -24 -24 -24 -24 -23 -23 -22 -22 -22 -22 -21 -21 -21 -21 -21 -21 -23 -23 -23 -23 -23 -24 -24 -24 -24 -24 -24 -24 -25 -25 -26 -26 -26 -27 -27 -27 -28 -29 -30 -30
-26 -26 -26 -25 -25 -24 -24 -23 -23 -23 -23 -22 -22 -23 -23 -23 -22 -22 -23 -24 -24 -24 -24 -24 -24 -25 -25 -24 -24 -24 -25 -25 -26 -26 -26 -26 -27 -27 -28 -29 -30 -31 -31
-27 -26 -25 -25 -25 -25 -24 -24 -24 -23 -23 -23 -23 -23 -23 -24 -24 -24 -24 -24 -24 -24 -25 -25 -25 -24 -24 -24 -25 -25 -26 -26 -26 -26 -26 -26 -27 -28 -29 -30 -31 -32 -32
-26 -26 -25 -25 -25 -25 -26 -25 -24 -24 -24 -24 -24 -24 -24 -24 -24 -25 -25 -25 -25 -25 -25 -25 -25 -25 -25 -25 -25 -26 -26 -26 -26 -26 -26 -27 -28 -30 -31 -32 -32 -33 -33
Height
5755 5755 5757 5758 5759 5759 5760 5761 5763 5763 5763 5763 5763 5763 5763 5763 5763 5763 5762 5763 5762 5760 5759 5759 5758 5757 5755 5754 5752 5750 5748 5745 5740 5736 5734 5730 5726 5722 5718 5715 5713 5710 5708
5742 5743 5745 5745 5747 5747 5749 5751 5752 5753 5753 5752 5752 5752 5753 5754 5754 5754 5752 5751 5751 5751 5751 5750 5748 5747 5745 5743 5742 5740 5737 5734 5729 5725 5721 5717 5713 5709 5706 5703 5700 5698 5696
5732 5731 5732 5733 5734 5735 5737 5739 5740 5741 5741 5741 5741 5743 5744 5744 5744 5743 5742 5742 5742 5741 5740 5739 5737 5736 5735 5733 5731 5729 5725 5722 5718 5713 5709 5704 5700 5697 5694 5691 5688 5685 5682
5718 5718 5719 5721 5722 5722 5723 5726 5727 5730 5730 5731 5731 5732 5732 5732 5732 5732 5732 5732 5731 5730 5729 5728 5727 5725 5724 5722 5720 5717 5714 5710 5707 5703 5697 5692 5688 5685 5683 5678 5675 5672 5668
5710 5709 5709 5709 5710 5710 5713 5714 5715 5718 5720 5721 5720 5720 5721 5722 5722 5721 5721 5720 5719 5718 5718 5717 5716 5714 5712 5711 5708 5705 5702 5698 5695 5691 5686 5682 5676 5671 5668 5665 5662 5657 5654
5701 5702 5702 5703 5702 5702 5702 5704 5706 5708 5709 5710 5711 5713 5711 5711 5711 5710 5709 5709 5709 5708 5707 5705 5704 5702 5700 5698 5696 5693 5689 5685 5682 5679 5674 5671 5666 5660 5656 5651 5647 5643 5640
5691 5692 5693 5694 5694 5694 5694 5694 5695 5696 5697 5700 5701 5702 5700 5699 5698 5699 5698 5697 5696 5695 5694 5693 5692 5691 5688 5686 5683 5680 5676 5673 5669 5665 5661 5658 5655 5651 5648 5642 5634 5630 5626
5679 5680 5680 5680 5680 5681 5683 5685 5686 5687 5686 5687 5688 5688 5688 5687 5686 5686 5685 5684 5682 5681 5681 5680 5679 5677 5675 5672 5669 5666 5663 5660 5656 5651 5648 5645 5642 5638 5636 5631 5625 5619 5613
5663 5666 5668 5669 5669 5669 5670 5671 5672 5674 5676 5677 5675 5676 5676 5675 5674 5673 5671 5669 5669 5669 5667 5666 5665 5663 5660 5657 5654 5652 5649 5646 5642 5638 5635 5631 5628 5625 5622 5617 5611 5607 5602
5646 5648 5650 5653 5655 5656 5658 5659 5659 5661 5663 5665 5664 5663 5662 5661 5661 5660 5658 5657 5656 5655 5654 5651 5650 5647 5643 5641 5639 5638 5635 5632 5628 5624 5621 5618 5615 5612 5608 5602 5600 5595 5589
5634 5635 5637 5638 5640 5642 5643 5644 5646 5647 5649 5650 5651 5650 5649 5648 5646 5645 5644 5643 5644 5643 5640 5638 5634 5632 5630 5627 5625 5623 5621 5617 5614 5610 5607 5605 5602 5598 5592 5589 5586 5581 5575
5616 5618 5621 5623 5625 5626 5628 5630 5632 5633 5634 5635 5636 5636 5636 5635 5634 5633 5630 5632 5631 5629 5626 5623 5619 5618 5614 5612 5610 5609 5606 5603 5600 5597 5594 5592 5588 5584 5579 5576 5571 5566 5560
5599 5602 5604 5607 5611 5612 5615 5616 5617 5619 5620 5620 5621 5623 5623 5623 5622 5619 5619 5619 5619 5616 5612 5607 5604 5601 5600 5597 5595 5593 5591 5588 5586 5583 5580 5578 5573 5569 5565 5560 5555 5549 5542
5589 5589 5590 5591 5592 5595 5597 5600 5603 5603 5605 5607 5608 5608 5609 5608 5606 5606 5606 5606 5604 5601 5599 5595 5590 5588 5585 5582 5579 5577 5577 5575 5572 5569 5566 5562 5558 5555 5549 5544 5538 5533 5527
5572 5573 5572 5575 5577 5580 5582 5584 5586 5586 5588 5590 5593 5594 5593 5594 5594 5593 5592 5592 5590 5588 5586 5583 5577 5573 5571 5568 5567 5563 5563 5561 5558 5556 5553 5549 5544 5541 5534 5527 5521 5516 5510
5554 5555 5559 5562 5562 5565 5568 5570 5572 5572 5575 5577 5577 5577 5578 5578 5580 5579 5580 5579 5577 5575 5572 5569 5565 5560 5556 5554 5552 5551 5548 5546 5546 5543 5539 5534 5530 5525 5518 5511 5504 5500 5493
5537 5539 5540 5541 5545 5548 5549 5553 5555 5558 5559 5561 5562 5565 5564 5563 5564 5563 5564 5563 5561 5558 5555 5553 5550 5546 5544 5540 5538 5537 5536 5535 5533 5528 5524 5520 5514 5508 5501 5496 5488 5483 5476
5519 5523 5525 5526 5527 5529 5531 5533 5536 5539 5541 5541 5543 5545 5546 5547 5549 5549 5549 5548 5544 5540 5539 5538 5535 5531 5530 5527 5525 5525 5524 5523 5519 5515 5511 5505 5499 5492 5485 5479 5472 5464 5458
5508 5507 5508 5509 5511 5513 5513 5514 5517 5520 5521 5523 5526 5528 5529 5530 5531 5534 5532 5531 5529 5526 5524 5521 5520 5519 5517 5514 5514 5513 5511 5509 5505 5502 5495 5488 5482 5475 5469 5462 5454 5447 5438
5490 5492 5492 5492 5493 5495 5495 5496 5499 5502 5505 5504 5505 5508 5510 5511 5512 5513 5515 5514 5512 5509 5507 5507 5506 5505 5506 5504 5502 5501 5498 5495 5491 5486 5481 5473 5466 5457 5452 5445 5437 5430 5422
5475 5475 5475 5478 5478 5479 5479 5478 5481 5484 5485 5487 5488 5490 5493 5493 5494 5493 5493 5493 5493 5492 5494 5494 5494 5495 5496 5493 5491 5487 5484 5479 5476 5471 5464 5458 5449 5442 5436 5428 5419 5412 5404
5461 5462 5464 5466 5466 5465 5466 5466 5468 5470 5471 5473 5475 5476 5479 5477 5480 5478 5478 5477 5478 5480 5481 5482 5484 5484 5484 5484 5479 5475 5471 5465 5461 5455 5449 5442 5434 5426 5417 5409 5402 5394 5385
5453 5453 5454 5456 5456 5456 5457 5456 5460 5460 5463 5466 5464 5464 5465 5466 5468 5468 5468 5469 5471 5472 5473 5473 5473 5474 5473 5470 5467 5462 5457 5452 5445 5441 5434 5426 5418 5408 5401 5394 5385 5376 5367
5444 5445 5446 5447 5447 5448 5449 5449 5452 5455 5454 5456 5458 5457 5456 5456 5458 5460 5460 5462 5463 5464 5464 5465 5464 5462 5460 5457 5453 5449 5445 5437 5432 5425 5420 5409 5401 5394 5386 5377 5367 5358 5350
5434 5437 5439 5440 5441 5441 5441 5442 5443 5445 5447 5449 5449 5449 5450 5450 5452 5454 5456 5455 5455 5456 5455 5455 5453 5449 5448 5446 5442 5437 5431 5424 5418 5411 5403 5396 5388 5378 5368 5359 5351 5343 5335
5427 5429 5432 5433 5435 5435 5435 5436 5437 5438 5439 5441 5441 5441 5441 5444 5446 5447 5447 5446 5447 5445 5444 5443 5442 5441 5438 5433 5428 5423 5417 5410 5403 5396 5388 5379 5370 5360 5352 5345 5337 5330 5323
Wind_Speed
41 44 43 43 46 50 49 49 46 46 47 47 46 44 44 44 43 41 41 42 42 43 43 42 42 44 45 46 46 46 47 49 52 53 56 56 53 53 53 51 50 49 50
44 43 43 45 47 49 48 46 44 46 48 47 47 46 45 44 41 39 40 43 44 44 42 43 44 46 46 47 46 46 50 51 53 55 54 54 52 53 50 47 48 49 49
40 39 40 42 43 44 44 42 43 44 45 43 46 45 44 44 41 41 43 43 43 43 44 47 47 47 47 47 48 49 51 54 55 57 53 54 51 48 46 47 47 50 52
34 36 36 37 37 40 41 40 40 42 44 44 47 49 48 44 42 43 44 45 45 46 47 47 47 47 48 49 50 50 54 57 58 54 53 51 47 44 48 49 50 51 50
33 35 34 35 38 40 40 40 40 40 44 46 52 54 45 41 43 45 47 46 47 46 46 47 48 49 51 53 53 52 58 59 58 53 51 49 45 48 51 48 50 48 50
30 32 35 35 37 39 38 38 39 39 44 46 50 44 42 44 47 48 48 50 49 49 49 49 50 52 54 55 55 57 58 55 52 52 52 49 47 49 52 52 50 49 50
35 31 33 35 36 37 39 40 42 44 47 46 45 44 42 46 51 51 52 53 54 53 53 54 56 57 58 59 60 61 55 48 51 50 50 50 48 50 52 52 51 52 52
43 41 44 40 39 40 40 40 43 45 47 49 49 49 49 48 53 56 57 59 59 59 59 60 60 60 61 63 59 55 49 53 52 49 49 49 48 50 52 51 50 52 52
51 48 47 46 46 47 46 45 44 46 47 50 53 54 57 58 61 62 62 64 64 63 64 64 65 64 64 60 52 48 46 48 51 51 51 48 49 51 53 51 51 53 51
54 52 49 46 46 49 50 51 52 51 49 51 55 56 57 60 61 63 67 66 65 65 65 67 67 66 57 53 47 46 48 49 52 51 51 51 51 51 52 50 54 54 52
55 54 53 54 52 48 48 50 50 50 49 51 56 58 59 60 62 63 65 68 67 67 68 69 64 59 58 49 52 50 50 51 52 52 50 51 52 54 53 54 56 54 54
57 57 56 53 50 47 46 46 47 48 50 53 56 58 61 64 65 67 68 66 67 69 65 65 63 56 57 53 51 49 52 52 52 52 52 54 56 55 54 56 58 57 56
58 58 60 61 60 59 56 54 50 51 52 52 52 56 57 58 62 66 67 65 62 67 68 67 56 54 57 55 48 47 50 48 51 53 55 56 53 52 55 58 58 59 58
60 62 61 62 60 60 58 56 57 56 55 52 52 53 53 56 60 62 61 58 64 64 60 62 60 67 61 54 43 45 49 52 55 58 56 51 50 53 56 59 60 61 60
70 71 72 69 66 64 64 64 59 58 57 56 54 54 48 53 57 59 61 64 57 55 59 64 66 65 60 53 49 48 52 54 56 52 51 51 53 58 59 60 61 61 60
72 71 68 66 65 60 59 59 56 57 61 61 58 58 55 49 49 48 52 55 58 62 63 67 67 59 54 44 49 51 52 46 44 50 53 54 59 58 60 61 61 61 60
70 68 68 68 67 65 64 61 59 57 56 59 61 58 56 53 57 56 54 57 62 65 64 64 60 59 49 50 51 48 44 45 50 53 54 58 59 61 59 59 60 61 62
76 74 74 75 75 71 67 64 65 61 58 56 56 54 59 55 57 56 65 62 58 53 55 59 57 55 57 50 43 42 46 50 52 53 57 62 62 59 58 59 60 61 62
69 70 70 70 70 68 69 68 69 68 64 63 60 60 53 57 61 60 68 74 60 57 59 56 54 54 51 41 42 43 47 47 52 58 61 58 56 55 57 59 61 64 64
62 63 62 62 63 63 61 60 61 60 60 58 57 50 48 54 55 57 48 50 57 59 53 51 51 45 36 37 40 42 45 49 56 58 57 54 54 55 59 61 62 64 67
48 49 49 50 53 54 52 48 50 48 42 35 40 40 41 45 46 50 53 58 60 52 49 44 37 34 31 33 42 46 49 52 55 56 54 54 57 58 61 64 64 68 72
41 43 45 42 41 41 38 37 31 25 28 34 36 40 39 41 48 58 60 51 42 34 30 30 32 31 34 40 47 51 51 52 55 55 56 57 58 60 64 67 71 73 72
34 30 32 34 35 29 26 25 26 29 22 25 26 30 36 36 34 31 28 18 15 20 28 32 33 34 41 47 51 52 53 55 52 56 56 58 62 65 69 72 72 70 67
27 30 27 27 25 32 21 21 23 20 30 32 24 15 16 18 24 24 21 20 22 25 29 31 35 41 46 50 52 53 54 53 53 56 60 63 68 71 73 71 67 64 60
30 25 20 24 20 21 20 21 24 29 28 29 34 29 30 24 20 21 24 23 24 27 32 37 43 47 50 51 50 50 51 51 55 60 64 68 72 72 69 63 59 53 51
28 29 23 21 19 23 20 18 19 25 25 28 25 25 22 24 24 26 26 26 29 32 37 41 45 48 46 45 47 50 51 55 60 64 68 71 70 66 59 53 50 50 52
Wind_Direction
255 255 258 260 263 264 264 266 267 268 267 270 274 273 272 269 269 268 268 269 269 268 268 271 273 274 276 278 280 284 288 292 296 300 304 307 307 308 305 302 300 300 299
255 255 253 255 259 260 261 262 262 263 268 272 272 271 272 274 273 272 271 269 269 271 272 274 275 276 277 278 282 285 291 294 297 301 306 306 311 308 304 303 303 302 301
255 250 250 251 251 254 256 256 256 259 263 263 267 272 272 274 274 272 271 272 274 275 273 273 276 276 277 280 283 288 294 295 297 302 306 306 308 305 303 302 301 301 300
247 242 240 244 247 248 249 250 249 252 254 259 263 264 264 268 272 274 275 274 273 272 273 275 274 275 278 280 284 290 298 295 299 304 304 306 301 301 301 302 302 301 301
254 243 240 241 241 242 243 242 241 244 248 254 258 257 258 268 273 273 272 273 273 272 273 274 274 276 279 283 286 290 293 296 297 303 303 301 298 300 302 300 300 302 303
265 256 255 255 253 252 252 250 246 248 249 257 262 266 268 269 271 269 267 268 270 272 273 273 276 279 283 285 288 287 291 292 299 301 303 297 295 299 301 303 302 302 303
261 258 256 255 253 255 256 254 252 248 249 253 256 259 255 260 265 266 267 269 271 273 274 277 278 280 284 285 287 288 286 296 301 301 298 293 294 298 298 302 302 302 304
265 259 260 257 256 253 250 251 254 254 255 254 251 252 256 259 262 265 267 270 271 273 276 278 280 282 283 283 281 281 290 298 300 295 292 291 292 297 297 299 300 301 300
269 263 258 255 257 259 256 256 256 257 261 257 253 255 257 260 260 263 265 267 269 273 275 278 280 281 278 273 276 291 299 298 298 293 286 287 292 295 297 299 298 298 298
265 263 259 256 253 252 255 258 258 255 255 256 257 258 259 257 258 259 263 268 270 272 277 280 281 273 265 268 289 295 296 293 291 286 285 288 292 294 294 297 296 296 295
262 262 261 260 258 258 257 256 257 257 255 253 254 255 256 258 260 263 264 265 268 273 277 279 269 269 269 284 296 294 289 290 287 286 286 290 292 293 295 295 294 295 293
263 261 260 261 261 260 257 258 259 255 255 255 255 253 255 258 261 263 266 269 273 275 275 268 264 267 279 285 290 289 286 288 286 287 291 293 292 294 295 294 296 296 293
272 269 268 266 265 264 262 259 258 257 257 255 254 255 255 256 261 264 267 271 273 274 268 264 266 288 275 279 286 287 286 287 287 290 294 292 293 293 296 295 295 294 293
261 265 266 269 271 272 271 267 264 261 257 259 260 260 258 259 259 261 265 268 271 269 266 266 273 288 276 277 282 283 284 286 289 292 291 290 292 295 297 295 296 295 294
267 269 272 273 273 273 274 271 271 272 271 267 263 259 261 263 264 266 266 269 273 275 278 267 274 273 273 279 277 281 282 286 287 290 290 292 297 297 297 297 295 294 294
266 267 266 266 268 266 267 269 271 272 270 272 274 273 276 269 268 276 272 267 268 271 271 264 267 274 273 280 280 283 281 284 287 294 294 294 297 297 295 295 294 294 295
264 265 266 269 269 270 272 272 273 273 273 272 274 274 276 269 272 279 276 264 259 265 261 267 267 271 276 278 279 277 276 282 289 293 295 296 295 295 294 293 294 297 298
272 274 274 273 275 279 280 280 279 279 281 281 279 279 276 272 267 273 276 259 258 266 274 269 268 269 274 275 277 274 275 282 291 294 295 295 295 294 296 295 297 298 297
275 277 278 279 280 281 282 283 281 281 282 283 281 278 272 266 262 264 257 271 269 263 261 264 267 271 275 277 271 274 283 287 294 295 296 297 296 295 295 298 300 300 302
276 276 277 278 279 280 282 281 281 280 280 275 273 269 267 262 256 254 256 256 258 254 259 264 267 275 269 269 279 287 291 297 297 294 295 296 295 298 299 300 301 302 302
275 277 277 278 280 281 278 277 280 276 273 268 260 257 256 247 255 251 249 246 247 250 257 265 269 264 272 280 287 293 297 297 297 297 297 298 299 300 301 303 304 304 303
262 261 265 270 274 273 271 272 269 261 261 258 256 246 250 249 257 250 242 238 244 254 261 265 265 265 276 286 296 298 298 299 298 299 299 301 300 303 305 306 305 304 304
258 258 264 260 268 268 267 263 248 252 228 213 240 235 240 234 234 241 241 249 274 277 261 259 265 276 290 292 296 298 298 297 300 300 300 302 305 308 306 305 304 304 305
255 256 250 257 263 256 266 216 225 235 254 255 246 242 248 245 246 259 279 291 280 275 271 274 284 289 291 295 296 296 295 299 300 302 304 307 307 305 304 305 306 307 307
241 239 241 251 257 262 251 241 245 247 255 259 258 257 267 271 274 275 270 269 268 270 276 282 286 291 290 291 292 293 298 301 303 305 306 306 304 304 307 307 308 309 309
247 237 241 248 252 257 262 261 252 243 242 248 253 261 267 271 273 272 272 273 273 278 281 284 287 289 290 293 297 299 301 303 305 306 305 304 306 308 308 309 308 308 308